STARLINK-34643, 64923

Orbit data source: Space-Track

STARLINK-34643, 64923 is a payload satellite owned by SpaceX/Seattle (US) in LEO that was launched on Sat, 26 Jul 2025 UTC via an FALCON 9 launch vehicle from the Air Force Eastern Test Range (AFETR). Payload-class satellites include a variety of spacecraft equipped with specific instruments for various scientific and technological missions. These include communications satellites like Starlink; space stations such as the ISS; scientific satellites like the Hubble; Earth observation satellites from companies like Planet Labs, Umbra, and HawkEye 360; GPS; miniature CubeSats for education and research; and military/defense satellites.

Loading next visibility...
Identifier
64923, 2025-157V
Orbit
LEO
Country
Flag of USUS
Related business
Manufacturer
SpaceX/Seattle
Mission
Operational Commercial Communications
Bus & Motor
STARLINK V2MO, Unknown motor
Mass
575 kg wet, ~530 kg dry
Launch date (UTC)
2025-07-26 (4 months ago)
Launch vehicle
FALCON 9
Launch site
Air Force Eastern Test Range (AFETR)
Object type
Payload
Rocket body
Debris
Shape & HBR
Box + 2 Pan, 17.7 m
Radar Cross Section
36.964 m², Large (>1 m²)

Expand to show TLE details & history
Last TLE update: 2 days ago

TLE from 2 days ago
0 STARLINK-34643
1 64923U 25157V   25312.68977469  .00085231  00000-0  21147-2 0  9999
2 64923  53.1578 193.7049 0000997  87.8768 272.2350 15.39652909 17511
Epoch: 2025-11-08T16:33Z
TLE epoch observation values (Epoch: 2025-11-08T16:33:16.533Z)
Latitude
-0.00009°
Longitude
-102.72983°
Altitude
448.012 km
Speed
7.645 km/s
True Right ascension
12h 54m 49s
True Declination
0° 00' 00"
Sunlit
Object was in daylight at epoch
Visualization orbit readout
Latitude
Unknown
Longitude
Unknown
Altitude
Unknown
Speed
Unknown
Apparent Right ascension
Unknown
Apparent Declination
Unknown
Sunlit
N/A
Visualization observer readout
Local Sidereal Time
03:54:20
Azimuth
Unknown
Elevation
Unknown
Doppler factor
Unknown
Orbital elements
Apogee altitude
448.073 km
Perigee altitude
446.712 km
Semi-major axis
6,825.53 km
Eccentricity
0.0001
Inclination
53.1578°
RAAN
193.7049°
Arg. of periapsis
87.8768°
True anomaly
272.22358°
Mean anomaly
272.235°
Eccentric anomaly
272.22929°
Mean motion
3.84892 °/min
Orbital period
93.53 mins
BSTAR
0.0021147
Loading maneuver chart data...
Computing Atmospheric mass density...
Loading historical data...
Loading historical data...
Loading historical data...
Loading historical data...
Loading historical data...
Loading historical data...
Loading historical data...

Documentation

Showing up to 5 results
|